BCS179 EKCH-EDDP

Flight info

Callsign BCS179
Flight time 0h 57m
Altitude 27000
Route SALLO M736 MAG/N0473F280 Z20 KENIG/N0451F230 T959 KOJEC KOJEC1V
Aircraft A306/H-SDE3FGHIRWY/LB1

Departure

Time 2026-05-05 12:26
Airport Copenhagen Kastrup Airport (EKCH)

Arrival

Time 2026-05-05 13:24
Airport Leipzig/Halle Airport (EDDP)
Time Latitude Longitude Altitude Speed Heading
2026-05-05 11:44 55.61952 12.67096 24 ft 0 kts 79°
2026-05-05 11:47 55.61954 12.67110 26 ft 1 kts 78°
2026-05-05 11:57 55.61972 12.67085 27 ft 0 kts 79°
2026-05-05 12:15 55.61970 12.67100 23 ft 3 kts 106°
2026-05-05 12:15 55.61944 12.67082 25 ft 8 kts 219°
2026-05-05 12:16 55.61893 12.66933 24 ft 19 kts 258°
2026-05-05 12:16 55.61871 12.66725 25 ft 15 kts 258°
2026-05-05 12:16 55.61853 12.66565 24 ft 11 kts 259°
2026-05-05 12:16 55.61833 12.66458 25 ft 7 kts 236°
2026-05-05 12:17 55.61774 12.66409 26 ft 14 kts 192°
2026-05-05 12:17 55.61690 12.66348 25 ft 11 kts 214°
2026-05-05 12:17 55.61672 12.66312 26 ft 0 kts 234°
2026-05-05 12:18 55.61670 12.66306 26 ft 4 kts 235°
2026-05-05 12:18 55.61635 12.66200 26 ft 15 kts 250°
2026-05-05 12:18 55.61654 12.65966 29 ft 24 kts 304°
2026-05-05 12:18 55.61743 12.65742 27 ft 20 kts 302°
2026-05-05 12:19 55.61813 12.65552 24 ft 17 kts 304°
2026-05-05 12:19 55.61871 12.65393 24 ft 14 kts 303°
2026-05-05 12:19 55.61917 12.65267 23 ft 10 kts 302°
2026-05-05 12:19 55.61958 12.65155 24 ft 13 kts 303°
2026-05-05 12:20 55.62006 12.64988 26 ft 16 kts 264°
2026-05-05 12:20 55.61916 12.64845 26 ft 19 kts 212°
2026-05-05 12:20 55.61814 12.64727 24 ft 17 kts 213°
2026-05-05 12:20 55.61721 12.64620 26 ft 15 kts 213°
2026-05-05 12:21 55.61637 12.64524 26 ft 14 kts 213°
2026-05-05 12:21 55.61563 12.64437 27 ft 12 kts 213°
2026-05-05 12:21 55.61496 12.64359 24 ft 14 kts 213°
2026-05-05 12:21 55.61342 12.64184 24 ft 31 kts 213°
2026-05-05 12:22 55.61150 12.63961 27 ft 33 kts 213°
2026-05-05 12:22 55.60962 12.63750 24 ft 31 kts 212°
2026-05-05 12:22 55.60789 12.63549 27 ft 29 kts 213°
2026-05-05 12:22 55.60631 12.63355 26 ft 27 kts 219°
2026-05-05 12:23 55.60497 12.63149 24 ft 24 kts 219°
2026-05-05 12:23 55.60371 12.63207 26 ft 20 kts 133°
2026-05-05 12:23 55.60346 12.63357 29 ft 10 kts 52°
2026-05-05 12:23 55.60366 12.63391 28 ft 0 kts 42°
2026-05-05 12:25 55.60384 12.63419 27 ft 17 kts 42°
2026-05-05 12:25 55.60650 12.63830 25 ft 82 kts 40°
2026-05-05 12:26 55.61226 12.64722 29 ft 136 kts 41°
2026-05-05 12:26 55.62068 12.66016 102 ft 179 kts 41°
2026-05-05 12:26 55.62990 12.67479 971 ft 176 kts 40°
2026-05-05 12:26 55.63917 12.68938 1726 ft 187 kts 39°
2026-05-05 12:27 55.64954 12.70530 2158 ft 203 kts 38°
2026-05-05 12:27 55.66044 12.72191 2691 ft 215 kts 38°
2026-05-05 12:27 55.67222 12.73950 3216 ft 226 kts 38°
2026-05-05 12:27 55.68447 12.75758 3781 ft 234 kts 37°
2026-05-05 12:28 55.69696 12.77780 4211 ft 253 kts 47°
2026-05-05 12:28 55.70596 12.80552 4905 ft 262 kts 65°
2026-05-05 12:28 55.71134 12.83673 5732 ft 271 kts 79°
2026-05-05 12:28 55.71005 12.87054 6414 ft 284 kts 109°
2026-05-05 12:29 55.69859 12.89886 7175 ft 286 kts 144°
2026-05-05 12:29 55.68074 12.91444 7934 ft 287 kts 163°
2026-05-05 12:29 55.66196 12.92553 8984 ft 281 kts 166°
2026-05-05 12:29 55.64327 12.93598 9866 ft 284 kts 168°
2026-05-05 12:30 55.62362 12.94648 10122 ft 307 kts 167°
2026-05-05 12:30 55.60319 12.95957 10666 ft 315 kts 164°
2026-05-05 12:30 55.58227 12.97337 11118 ft 327 kts 165°
2026-05-05 12:30 55.56061 12.98712 11401 ft 343 kts 165°
2026-05-05 12:31 55.53762 13.00156 11670 ft 358 kts 165°
2026-05-05 12:31 55.51367 13.01660 11936 ft 372 kts 165°
2026-05-05 12:31 55.48887 13.03217 12258 ft 383 kts 165°
2026-05-05 12:31 55.46351 13.04810 12768 ft 389 kts 165°
2026-05-05 12:32 55.43791 13.06417 13320 ft 392 kts 165°
2026-05-05 12:32 55.41207 13.08036 13879 ft 396 kts 165°
2026-05-05 12:32 55.38605 13.09664 14387 ft 399 kts 165°
2026-05-05 12:32 55.35983 13.11300 14912 ft 401 kts 165°
2026-05-05 12:33 55.33340 13.12947 15414 ft 404 kts 165°
2026-05-05 12:33 55.30684 13.14599 15953 ft 406 kts 165°
2026-05-05 12:33 55.28012 13.16233 16466 ft 407 kts 167°
2026-05-05 12:33 55.25255 13.17279 16985 ft 404 kts 178°
2026-05-05 12:34 55.22468 13.17218 17495 ft 399 kts 191°
2026-05-05 12:34 55.19732 13.16442 18003 ft 399 kts 195°
2026-05-05 12:34 55.17057 13.15359 18431 ft 400 kts 198°
2026-05-05 12:34 55.14331 13.14081 18865 ft 402 kts 199°
2026-05-05 12:35 55.11666 13.12770 19240 ft 404 kts 199°
2026-05-05 12:35 55.08955 13.11437 19639 ft 406 kts 199°
2026-05-05 12:35 55.06221 13.10116 20019 ft 408 kts 199°
2026-05-05 12:35 55.03479 13.08820 20407 ft 409 kts 199°
2026-05-05 12:36 55.00719 13.07537 20797 ft 411 kts 198°
2026-05-05 12:36 54.97949 13.06266 21183 ft 413 kts 198°
2026-05-05 12:36 54.95169 13.04997 21555 ft 415 kts 198°
2026-05-05 12:36 54.92370 13.03723 21932 ft 416 kts 198°
2026-05-05 12:37 54.89563 13.02448 22292 ft 418 kts 198°
2026-05-05 12:37 54.86741 13.01166 22637 ft 420 kts 198°
2026-05-05 12:37 54.83905 12.99878 22989 ft 422 kts 198°
2026-05-05 12:37 54.81055 12.98586 23311 ft 424 kts 198°
2026-05-05 12:38 54.78201 12.97293 23628 ft 425 kts 198°
2026-05-05 12:38 54.75332 12.95995 23886 ft 427 kts 198°
2026-05-05 12:38 54.72439 12.94688 24136 ft 429 kts 198°
2026-05-05 12:38 54.69544 12.93382 24386 ft 431 kts 198°
2026-05-05 12:39 54.66637 12.92073 24631 ft 433 kts 198°
2026-05-05 12:39 54.63743 12.90771 24877 ft 435 kts 198°
2026-05-05 12:39 54.60815 12.89457 25109 ft 436 kts 198°
2026-05-05 12:39 54.57871 12.88136 25344 ft 438 kts 198°
2026-05-05 12:40 54.54915 12.86813 25551 ft 440 kts 198°
2026-05-05 12:40 54.51950 12.85488 25758 ft 441 kts 198°
2026-05-05 12:40 54.48967 12.84156 25992 ft 443 kts 198°
2026-05-05 12:40 54.45984 12.82827 26216 ft 444 kts 198°
2026-05-05 12:41 54.42991 12.81495 26425 ft 445 kts 198°
2026-05-05 12:41 54.39983 12.80158 26635 ft 447 kts 198°
2026-05-05 12:41 54.36958 12.78816 26825 ft 448 kts 198°
2026-05-05 12:41 54.33938 12.77479 27099 ft 448 kts 198°
2026-05-05 12:42 54.30925 12.76147 27401 ft 446 kts 199°
2026-05-05 12:42 54.27942 12.74833 27612 ft 441 kts 199°
2026-05-05 12:42 54.24951 12.73515 27690 ft 444 kts 199°
2026-05-05 12:42 54.21961 12.72196 27949 ft 444 kts 199°
2026-05-05 12:43 54.18969 12.70879 28275 ft 443 kts 199°
2026-05-05 12:43 54.15990 12.69572 28591 ft 442 kts 199°
2026-05-05 12:43 54.13012 12.68268 28898 ft 441 kts 199°
2026-05-05 12:43 54.10077 12.66984 29212 ft 440 kts 199°
2026-05-05 12:44 54.07109 12.65687 29498 ft 439 kts 199°
2026-05-05 12:44 54.04153 12.64399 29885 ft 437 kts 200°
2026-05-05 12:44 54.01214 12.63120 30204 ft 436 kts 200°
2026-05-05 12:44 53.98275 12.61841 30430 ft 436 kts 200°
2026-05-05 12:45 53.96331 12.60996 30581 ft 436 kts 200°
2026-05-05 12:45 53.93401 12.59723 30819 ft 435 kts 200°
2026-05-05 12:45 53.89475 12.58020 31132 ft 435 kts 200°
2026-05-05 12:45 53.87536 12.57180 31286 ft 435 kts 200°
2026-05-05 12:46 53.84601 12.55911 31527 ft 435 kts 200°
2026-05-05 12:46 53.81677 12.54650 31828 ft 432 kts 200°
2026-05-05 12:46 53.78773 12.53402 32158 ft 430 kts 200°
2026-05-05 12:46 53.75872 12.52153 32381 ft 430 kts 200°
2026-05-05 12:47 53.72973 12.50905 32601 ft 430 kts 200°
2026-05-05 12:47 53.70072 12.49658 32847 ft 430 kts 200°
2026-05-05 12:47 53.64264 12.47168 32927 ft 430 kts 200°
2026-05-05 12:48 53.58468 12.44695 32906 ft 429 kts 200°
2026-05-05 12:48 53.52721 12.42249 32921 ft 427 kts 200°
2026-05-05 12:49 53.46966 12.39805 32918 ft 426 kts 200°
2026-05-05 12:49 53.41203 12.37364 32919 ft 426 kts 200°
2026-05-05 12:50 53.35449 12.34933 32902 ft 427 kts 200°
2026-05-05 12:50 53.29698 12.32510 32911 ft 425 kts 200°
2026-05-05 12:51 53.23987 12.30112 32909 ft 425 kts 200°
2026-05-05 12:51 53.18247 12.27709 32908 ft 425 kts 200°
2026-05-05 12:52 53.12500 12.25309 32908 ft 425 kts 200°
2026-05-05 12:52 53.06758 12.22915 32900 ft 426 kts 200°
2026-05-05 12:53 53.01000 12.20523 32903 ft 426 kts 200°
2026-05-05 12:53 52.95251 12.18142 32904 ft 426 kts 199°
2026-05-05 12:54 52.86621 12.14581 32902 ft 426 kts 199°
2026-05-05 12:55 52.80866 12.12214 32899 ft 426 kts 199°
2026-05-05 12:55 52.75149 12.09869 32894 ft 426 kts 199°
2026-05-05 12:56 52.69391 12.07511 32892 ft 426 kts 199°
2026-05-05 12:56 52.63633 12.05161 32861 ft 426 kts 199°
2026-05-05 12:57 52.57878 12.02821 32890 ft 425 kts 199°
2026-05-05 12:57 52.52138 12.00494 32888 ft 424 kts 199°
2026-05-05 12:58 52.46406 11.98174 32886 ft 424 kts 199°
2026-05-05 12:58 52.40670 11.95860 32885 ft 424 kts 199°
2026-05-05 12:59 52.34962 11.93564 32877 ft 424 kts 199°
2026-05-05 12:59 52.29225 11.91260 32884 ft 424 kts 199°
2026-05-05 13:00 52.20616 11.87811 32886 ft 424 kts 199°
2026-05-05 13:01 52.09139 11.83238 32878 ft 426 kts 198°
2026-05-05 13:01 52.03424 11.80943 32878 ft 424 kts 200°
2026-05-05 13:02 52.00661 11.79340 32667 ft 419 kts 207°
2026-05-05 13:02 51.98120 11.77105 32018 ft 412 kts 217°
2026-05-05 13:02 51.95834 11.74315 31234 ft 410 kts 221°
2026-05-05 13:02 51.93643 11.71335 30441 ft 411 kts 222°
2026-05-05 13:03 51.91501 11.68276 29630 ft 411 kts 223°
2026-05-05 13:03 51.89370 11.65184 28816 ft 410 kts 223°
2026-05-05 13:03 51.87244 11.62100 28044 ft 409 kts 223°
2026-05-05 13:03 51.85125 11.59051 27510 ft 403 kts 222°
2026-05-05 13:04 51.83055 11.56094 27042 ft 402 kts 222°
2026-05-05 13:04 51.80947 11.53099 26505 ft 402 kts 222°
2026-05-05 13:04 51.78838 11.50116 25989 ft 402 kts 221°
2026-05-05 13:04 51.76745 11.47164 25465 ft 399 kts 221°
2026-05-05 13:05 51.74648 11.44214 24960 ft 397 kts 221°
2026-05-05 13:05 51.72571 11.41295 24423 ft 395 kts 221°
2026-05-05 13:05 51.70437 11.38491 23926 ft 396 kts 215°
2026-05-05 13:05 51.68044 11.36323 23414 ft 396 kts 204°
2026-05-05 13:06 51.65404 11.35064 22835 ft 397 kts 191°
2026-05-05 13:06 51.62646 11.34897 22309 ft 398 kts 177°
2026-05-05 13:06 51.59949 11.35876 21785 ft 400 kts 162°
2026-05-05 13:06 51.57514 11.37927 21274 ft 402 kts 148°
2026-05-05 13:07 51.55450 11.40979 20759 ft 405 kts 133°
2026-05-05 13:07 51.53761 11.44586 20247 ft 405 kts 128°
2026-05-05 13:07 51.52340 11.48513 19655 ft 408 kts 116°
2026-05-05 13:07 51.51579 11.52929 19036 ft 414 kts 99°
2026-05-05 13:08 51.51563 11.57573 18396 ft 418 kts 88°
2026-05-05 13:08 51.51811 11.62236 17667 ft 420 kts 86°
2026-05-05 13:08 51.52083 11.66914 16971 ft 420 kts 86°
2026-05-05 13:08 51.52343 11.71573 16267 ft 418 kts 86°
2026-05-05 13:09 51.52592 11.76216 15556 ft 417 kts 86°
2026-05-05 13:09 51.52833 11.80848 14864 ft 415 kts 86°
2026-05-05 13:09 51.53067 11.85449 14142 ft 413 kts 86°
2026-05-05 13:09 51.53297 11.90043 13383 ft 412 kts 86°
2026-05-05 13:10 51.53524 11.94616 12628 ft 409 kts 86°
2026-05-05 13:10 51.53746 11.99117 12003 ft 402 kts 86°
2026-05-05 13:10 51.53963 12.03588 11323 ft 398 kts 87°
2026-05-05 13:10 51.54175 12.07994 10712 ft 392 kts 87°
2026-05-05 13:11 51.54379 12.12256 10583 ft 374 kts 87°
2026-05-05 13:11 51.54573 12.16337 10446 ft 358 kts 87°
2026-05-05 13:11 51.54755 12.20188 10306 ft 343 kts 87°
2026-05-05 13:11 51.54930 12.23944 10172 ft 330 kts 87°
2026-05-05 13:12 51.55097 12.27554 10033 ft 318 kts 87°
2026-05-05 13:12 51.55257 12.31040 9878 ft 308 kts 87°
2026-05-05 13:12 51.55413 12.34452 9522 ft 305 kts 87°
2026-05-05 13:12 51.55565 12.37831 8995 ft 302 kts 87°
2026-05-05 13:13 51.55715 12.41186 8476 ft 299 kts 87°
2026-05-05 13:13 51.55864 12.44508 7961 ft 297 kts 86°
2026-05-05 13:13 51.56010 12.47794 7433 ft 293 kts 86°
2026-05-05 13:13 51.56153 12.51038 6863 ft 290 kts 86°
2026-05-05 13:14 51.56294 12.54249 6351 ft 285 kts 86°
2026-05-05 13:14 51.56432 12.57384 5942 ft 278 kts 86°
2026-05-05 13:14 51.56565 12.60446 5553 ft 274 kts 86°
2026-05-05 13:14 51.56698 12.63505 5169 ft 275 kts 86°
2026-05-05 13:15 51.56829 12.66555 5010 ft 272 kts 86°
2026-05-05 13:15 51.56931 12.69597 4991 ft 272 kts 92°
2026-05-05 13:15 51.56453 12.72503 4991 ft 271 kts 120°
2026-05-05 13:15 51.55199 12.74717 4997 ft 269 kts 147°
2026-05-05 13:16 51.53466 12.75786 5002 ft 268 kts 169°
2026-05-05 13:16 51.51602 12.76186 4992 ft 271 kts 174°
2026-05-05 13:16 51.49745 12.76485 4986 ft 263 kts 174°
2026-05-05 13:16 51.47971 12.76543 4969 ft 248 kts 192°
2026-05-05 13:17 51.46458 12.75391 4987 ft 241 kts 222°
2026-05-05 13:17 51.45397 12.73319 5002 ft 242 kts 237°
2026-05-05 13:17 51.44505 12.71056 4993 ft 243 kts 238°
2026-05-05 13:17 51.43714 12.68693 5008 ft 236 kts 249°
2026-05-05 13:18 51.43335 12.66241 4995 ft 219 kts 263°
2026-05-05 13:18 51.43210 12.63837 4994 ft 215 kts 266°
2026-05-05 13:18 51.43103 12.61452 4917 ft 215 kts 265°
2026-05-05 13:18 51.42972 12.59065 4687 ft 214 kts 265°
2026-05-05 13:19 51.42861 12.56700 4347 ft 212 kts 266°
2026-05-05 13:19 51.42753 12.54350 4016 ft 210 kts 266°
2026-05-05 13:19 51.42642 12.52030 3715 ft 207 kts 266°
2026-05-05 13:19 51.42536 12.49766 3435 ft 202 kts 266°
2026-05-05 13:20 51.42432 12.47551 3179 ft 197 kts 266°
2026-05-05 13:20 51.42330 12.45389 2921 ft 192 kts 266°
2026-05-05 13:20 51.42233 12.43317 2684 ft 180 kts 268°
2026-05-05 13:20 51.42142 12.41416 2455 ft 163 kts 269°
2026-05-05 13:21 51.42061 12.39690 2224 ft 152 kts 269°
2026-05-05 13:21 51.41984 12.38016 2036 ft 151 kts 269°
2026-05-05 13:21 51.41905 12.36326 1842 ft 152 kts 269°
2026-05-05 13:21 51.41826 12.34635 1646 ft 152 kts 269°
2026-05-05 13:22 51.41747 12.32944 1435 ft 152 kts 268°
2026-05-05 13:22 51.41668 12.31267 1223 ft 151 kts 268°
2026-05-05 13:22 51.41592 12.29582 1025 ft 151 kts 268°
2026-05-05 13:22 51.41504 12.27908 819 ft 152 kts 268°
2026-05-05 13:23 51.41430 12.26227 614 ft 153 kts 266°
2026-05-05 13:23 51.41355 12.24565 479 ft 140 kts 267°
2026-05-05 13:23 51.41292 12.23241 471 ft 95 kts 266°
2026-05-05 13:23 51.41252 12.22354 466 ft 68 kts 265°
2026-05-05 13:24 51.41180 12.21807 460 ft 33 kts 244°
2026-05-05 13:24 51.41107 12.21665 463 ft 12 kts 200°
2026-05-05 13:24 51.41061 12.21688 465 ft 3 kts 128°
2026-05-05 13:24 51.41050 12.21746 466 ft 6 kts 95°
2026-05-05 13:25 51.41054 12.21806 466 ft 6 kts 84°
2026-05-05 13:25 51.41056 12.21875 465 ft 7 kts 85°
2026-05-05 13:25 51.41061 12.21964 465 ft 9 kts 85°
2026-05-05 13:25 51.41065 12.22067 465 ft 10 kts 86°
2026-05-05 13:26 51.41070 12.22174 465 ft 10 kts 85°
2026-05-05 13:26 51.41076 12.22290 465 ft 11 kts 85°
2026-05-05 13:26 51.41082 12.22419 465 ft 12 kts 86°
2026-05-05 13:26 51.41087 12.22550 466 ft 11 kts 86°
2026-05-05 13:27 51.41092 12.22673 468 ft 11 kts 85°
2026-05-05 13:27 51.41099 12.22788 470 ft 10 kts 85°
2026-05-05 13:27 51.41104 12.22890 470 ft 8 kts 85°
2026-05-05 13:27 51.41108 12.22976 474 ft 10 kts 86°
2026-05-05 13:28 51.41114 12.23142 477 ft 20 kts 87°
2026-05-05 13:28 51.41128 12.23385 481 ft 20 kts 85°
2026-05-05 13:28 51.41136 12.23599 475 ft 19 kts 85°
2026-05-05 13:28 51.41148 12.23804 473 ft 18 kts 84°
2026-05-05 13:29 51.41155 12.23993 478 ft 16 kts 87°
2026-05-05 13:29 51.41162 12.24178 470 ft 17 kts 86°
2026-05-05 13:29 51.41168 12.24347 474 ft 13 kts 100°
2026-05-05 13:29 51.41107 12.24385 475 ft 10 kts 199°
2026-05-05 13:30 51.41081 12.24297 475 ft 9 kts 266°
2026-05-05 13:30 51.41078 12.24208 472 ft 7 kts 267°
2026-05-05 13:30 51.41068 12.24139 471 ft 5 kts 240°
2026-05-05 13:30 51.41043 12.24122 472 ft 7 kts 188°
2026-05-05 13:31 51.40987 12.24128 475 ft 8 kts 176°
2026-05-05 13:31 51.40931 12.24125 472 ft 5 kts 212°
2026-05-05 13:31 51.40923 12.24077 473 ft 4 kts 268°
2026-05-05 13:31 51.40921 12.24041 473 ft 3 kts 266°
2026-05-05 13:32 51.40921 12.24026 473 ft 0 kts 266°